When you browse on this site, cookies collect data to enhance your experience and personalize the content and advertising you see.
Visit our Privacy Policy to learn more. By continuing to use the site, you agree to this use of cookies and data.
  • In Schweiz
  • Länderverzeichnis
  • Für 7 Tage
  • Wassertemperatur
  • Wetterkarte
  • Widgets
  • user-avatar
    Anmelden

    Stündliche Wetter Popovo

    Heute, 18 August, Sonntag

    Zeit Temperatur Niederschläge Wind Luftdruck Luftfeuchtigkeit
    00:00 +14°C° 1.6 mm 3 m/S 738 mmHg 98%
    01:00 +14°C° 1.6 mm 3 m/S 738 mmHg 97%
    02:00 +14°C° 1.6 mm 3 m/S 737 mmHg 97%
    03:00 +13°C° 0.9 mm 3 m/S 737 mmHg 97%
    04:00 +13°C° 0.9 mm 3 m/S 737 mmHg 97%
    05:00 +13°C° 0.9 mm 3 m/S 737 mmHg 97%
    06:00 +13°C° 1.6 mm 3 m/S 737 mmHg 97%
    07:00 +13°C° 1.6 mm 3 m/S 737 mmHg 97%
    08:00 +13°C° 1.6 mm 3 m/S 737 mmHg 97%
    09:00 +13°C° 1 mm 3 m/S 737 mmHg 97%
    10:00 +13°C° 1 mm 3 m/S 737 mmHg 97%
    11:00 +13°C° 1 mm 3 m/S 737 mmHg 97%
    12:00 +13°C° 0.6 mm 3 m/S 737 mmHg 97%
    13:00 +13°C° 0.6 mm 3 m/S 737 mmHg 97%
    14:00 +13°C° 0.6 mm 3 m/S 738 mmHg 97%
    15:00 +14°C° 0.2 mm 2 m/S 738 mmHg 97%
    16:00 +15°C° 0.2 mm 2 m/S 738 mmHg 97%
    17:00 +15°C° 0.2 mm 2 m/S 738 mmHg 97%
    18:00 +14°C° 0 mm 2 m/S 739 mmHg 97%
    19:00 +14°C° 0 mm 2 m/S 739 mmHg 98%
    20:00 +14°C° 0 mm 2 m/S 739 mmHg 98%
    21:00 +14°C° 0 mm 2 m/S 739 mmHg 98%
    22:00 +14°C° 0 mm 2 m/S 739 mmHg 98%
    23:00 +13°C° 0 mm 2 m/S 740 mmHg 98%

    Morgen, 19 August, Montag

    Zeit Temperatur Niederschläge Wind Luftdruck Luftfeuchtigkeit
    00:00 +13°C° 0 mm 2 m/S 740 mmHg 97%
    01:00 +13°C° 0 mm 2 m/S 740 mmHg 97%
    02:00 +12°C° 0 mm 2 m/S 740 mmHg 97%
    03:00 +12°C° 0 mm 2 m/S 741 mmHg 97%
    04:00 +12°C° 0 mm 1 m/S 741 mmHg 97%
    05:00 +12°C° 0 mm 1 m/S 741 mmHg 97%
    06:00 +14°C° 0 mm 1 m/S 741 mmHg 94%
    07:00 +16°C° 0 mm 1 m/S 742 mmHg 91%
    08:00 +17°C° 0 mm 2 m/S 742 mmHg 88%
    09:00 +19°C° 0 mm 2 m/S 742 mmHg 80%
    10:00 +21°C° 0 mm 2 m/S 742 mmHg 71%
    11:00 +24°C° 0 mm 3 m/S 743 mmHg 63%
    12:00 +24°C° 0 mm 3 m/S 743 mmHg 62%
    13:00 +25°C° 0 mm 3 m/S 743 mmHg 61%
    14:00 +25°C° 0 mm 4 m/S 743 mmHg 61%
    15:00 +25°C° 0 mm 3 m/S 743 mmHg 65%
    16:00 +25°C° 0 mm 3 m/S 743 mmHg 69%
    17:00 +24°C° 0 mm 2 m/S 743 mmHg 73%
    18:00 +23°C° 0 mm 2 m/S 743 mmHg 79%
    19:00 +20°C° 0 mm 2 m/S 743 mmHg 86%
    20:00 +19°C° 0 mm 2 m/S 743 mmHg 92%
    21:00 +18°C° 0 mm 2 m/S 743 mmHg 93%
    22:00 +18°C° 0 mm 3 m/S 743 mmHg 93%
    23:00 +18°C° 0 mm 3 m/S 743 mmHg 94%

    übermorgen, 20 August, Dienstag

    Zeit Temperatur Niederschläge Wind Luftdruck Luftfeuchtigkeit
    00:00 +17°C° 0 mm 3 m/S 743 mmHg 95%
    01:00 +17°C° 0 mm 2 m/S 744 mmHg 96%
    02:00 +17°C° 0 mm 2 m/S 744 mmHg 97%
    03:00 +16°C° 0 mm 2 m/S 744 mmHg 97%
    04:00 +16°C° 0 mm 2 m/S 744 mmHg 98%
    05:00 +16°C° 0 mm 1 m/S 744 mmHg 98%
    06:00 +19°C° 0 mm 1 m/S 744 mmHg 95%
    07:00 +20°C° 0 mm 1 m/S 745 mmHg 92%
    08:00 +21°C° 0 mm 1 m/S 745 mmHg 89%
    09:00 +22°C° 0.1 mm 1 m/S 745 mmHg 85%
    10:00 +23°C° 0.1 mm 1 m/S 745 mmHg 82%
    11:00 +25°C° 0.1 mm 1 m/S 746 mmHg 78%
    12:00 +25°C° 0.3 mm 1 m/S 746 mmHg 77%
    13:00 +25°C° 0.3 mm 1 m/S 746 mmHg 75%
    14:00 +26°C° 0.3 mm 1 m/S 746 mmHg 74%
    15:00 +25°C° 0.6 mm 1 m/S 746 mmHg 78%
    16:00 +25°C° 0.6 mm 1 m/S 746 mmHg 82%
    17:00 +24°C° 0.6 mm 1 m/S 746 mmHg 87%
    18:00 +23°C° 0.7 mm 1 m/S 746 mmHg 89%
    19:00 +22°C° 0.7 mm 1 m/S 746 mmHg 91%
    20:00 +18°C° 0.7 mm 0 m/S 746 mmHg 94%
    21:00 +18°C° 0 mm 0 m/S 746 mmHg 94%
    22:00 +17°C° 0 mm 0 m/S 746 mmHg 95%
    23:00 +17°C° 0 mm 0 m/S 746 mmHg 95%

    21 August, Mittwoch

    Zeit Temperatur Niederschläge Wind Luftdruck Luftfeuchtigkeit
    00:00 +16°C° 0 mm 0 m/S 747 mmHg 96%
    01:00 +16°C° 0 mm 0 m/S 747 mmHg 96%
    02:00 +18°C° 0 mm 1 m/S 747 mmHg 97%
    03:00 +16°C° 0 mm 0 m/S 747 mmHg 97%
    04:00 +15°C° 0 mm 0 m/S 747 mmHg 97%
    05:00 +15°C° 0 mm 0 m/S 747 mmHg 97%
    06:00 +17°C° 0 mm 0 m/S 747 mmHg 94%
    07:00 +18°C° 0 mm 0 m/S 747 mmHg 92%
    08:00 +20°C° 0 mm 0 m/S 747 mmHg 89%
    09:00 +21°C° 0 mm 0 m/S 747 mmHg 83%
    10:00 +22°C° 0 mm 0 m/S 747 mmHg 77%
    11:00 +24°C° 0 mm 0 m/S 747 mmHg 71%
    12:00 +24°C° 0 mm 0 m/S 747 mmHg 69%
    13:00 +24°C° 0 mm 0 m/S 747 mmHg 67%
    14:00 +25°C° 0 mm 0 m/S 746 mmHg 66%
    15:00 +24°C° 0.5 mm 0 m/S 746 mmHg 71%
    16:00 +25°C° 0.5 mm 1 m/S 746 mmHg 77%
    17:00 +24°C° 0.5 mm 1 m/S 745 mmHg 83%
    18:00 +23°C° 0.4 mm 1 m/S 745 mmHg 86%
    19:00 +22°C° 0.4 mm 1 m/S 745 mmHg 89%
    20:00 +21°C° 0.4 mm 1 m/S 744 mmHg 92%
    21:00 +21°C° 0.3 mm 1 m/S 744 mmHg 94%
    22:00 +19°C° 0.3 mm 2 m/S 744 mmHg 95%
    23:00 +19°C° 0.3 mm 2 m/S 743 mmHg 96%

    22 August, Donnerstag

    Zeit Temperatur Niederschläge Wind Luftdruck Luftfeuchtigkeit
    00:00 +19°C° 0.5 mm 2 m/S 743 mmHg 96%
    01:00 +19°C° 0.5 mm 2 m/S 743 mmHg 97%
    02:00 +19°C° 0.5 mm 2 m/S 743 mmHg 97%
    03:00 +17°C° 0.9 mm 3 m/S 743 mmHg 97%
    04:00 +15°C° 0.9 mm 4 m/S 743 mmHg 96%
    05:00 +14°C° 0.9 mm 4 m/S 743 mmHg 95%
    06:00 +14°C° 0.1 mm 4 m/S 744 mmHg 94%
    07:00 +14°C° 0.1 mm 4 m/S 744 mmHg 93%
    08:00 +15°C° 0.1 mm 4 m/S 745 mmHg 92%
    09:00 +17°C° 0 mm 4 m/S 745 mmHg 85%
    10:00 +18°C° 0 mm 4 m/S 746 mmHg 79%
    11:00 +19°C° 0 mm 4 m/S 746 mmHg 73%
    12:00 +20°C° 0 mm 3 m/S 746 mmHg 68%
    13:00 +21°C° 0 mm 3 m/S 746 mmHg 63%
    14:00 +22°C° 0 mm 3 m/S 746 mmHg 58%
    15:00 +22°C° 0 mm 3 m/S 746 mmHg 62%
    16:00 +21°C° 0 mm 2 m/S 747 mmHg 65%
    17:00 +21°C° 0 mm 2 m/S 747 mmHg 69%
    18:00 +19°C° 0 mm 2 m/S 747 mmHg 74%
    19:00 +17°C° 0 mm 2 m/S 747 mmHg 79%
    20:00 +15°C° 0 mm 2 m/S 747 mmHg 84%
    21:00 +15°C° 0 mm 2 m/S 747 mmHg 86%
    22:00 +14°C° 0 mm 2 m/S 747 mmHg 88%
    23:00 +14°C° 0 mm 1 m/S 747 mmHg 90%

    23 August, Freitag

    Zeit Temperatur Niederschläge Wind Luftdruck Luftfeuchtigkeit
    00:00 +13°C° 0 mm 1 m/S 748 mmHg 91%
    01:00 +12°C° 0 mm 1 m/S 748 mmHg 92%
    02:00 +12°C° 0 mm 1 m/S 748 mmHg 94%
    03:00 +12°C° 0 mm 1 m/S 748 mmHg 94%
    04:00 +11°C° 0 mm 1 m/S 748 mmHg 94%
    05:00 +11°C° 0 mm 1 m/S 748 mmHg 94%
    06:00 +13°C° 0 mm 1 m/S 748 mmHg 87%
    07:00 +15°C° 0 mm 1 m/S 748 mmHg 80%
    08:00 +18°C° 0 mm 1 m/S 748 mmHg 73%
    09:00 +19°C° 0 mm 1 m/S 748 mmHg 68%
    10:00 +19°C° 0 mm 2 m/S 748 mmHg 62%
    11:00 +20°C° 0 mm 2 m/S 748 mmHg 57%
    12:00 +20°C° 0 mm 2 m/S 748 mmHg 57%
    13:00 +20°C° 0 mm 2 m/S 747 mmHg 57%
    14:00 +20°C° 0 mm 2 m/S 747 mmHg 57%
    15:00 +19°C° 0.2 mm 2 m/S 747 mmHg 64%
    16:00 +18°C° 0.2 mm 2 m/S 747 mmHg 71%
    17:00 +17°C° 0.2 mm 2 m/S 747 mmHg 78%
    18:00 +16°C° 0.1 mm 2 m/S 747 mmHg 82%
    19:00 +15°C° 0.1 mm 2 m/S 747 mmHg 85%
    20:00 +14°C° 0.1 mm 1 m/S 747 mmHg 89%
    21:00 +14°C° 0 mm 1 m/S 747 mmHg 90%
    22:00 +13°C° 0 mm 1 m/S 747 mmHg 91%
    23:00 +12°C° 0 mm 1 m/S 747 mmHg 92%
    Mehr zeigen